This demonstration page uses our WeatherBlox Daily Observations layout. Learn more.

Left ArrowRight Arrow

Hourly Observations for November 27, 2022

Temp ( °F °C ) Dew Point ( °F °C ) Humidity (%) Winds ( mph kmh ) Pressure ( in mb ) Visibility ( mi km ) Precip ( " mm )
12:53 am 00:53 Cloudy with Light Rain 45 7.2 42 5.6 90 90 E 5 7 29.80 1009 7 11 0.05 1.27
1:53 am 01:53 Cloudy with Light Rain 46 7.8 43 6.1 89 89 Calm 29.75 1008 10 16 0.02 0.51
2:53 am 02:53 Cloudy with Light Rain 46 7.8 45 7.2 96 96 E 7 11 29.70 1006 10 16 0.01 0.25
3:11 am 03:11 Cloudy 47 8.3 45 7.2 93 93 ESE 5 7 29.69 1006 10 16 0.01 0.13
3:39 am 03:39 Cloudy with Heavy Rain 47 8.3 45 7.2 93 93 ESE 6 9 29.66 1004 3 4 0.04 1.02
3:49 am 03:49 Cloudy with Heavy Rain 46 8 46 8 100 100 ESE 7 11 29.65 1004 2 3 0.12 3.05
3:53 am 03:53 Cloudy with Rain 47 8.3 46 7.8 97 97 E 6 9 29.64 1004 2 3 0.12 3.05
4:02 am 04:02 Cloudy with Light Rain 47 8.3 46 7.8 97 97 ESE 5 7 29.64 1004 6 10 0.01 0.25
4:11 am 04:11 Cloudy with Light Rain 48 8.9 46 7.8 93 93 ESE 6 9 29.64 1004 10 16 0.01 0.25
4:44 am 04:44 Cloudy with Rain 49 9.4 47 8.3 93 93 ESE 7 11 29.62 1003 4 6 0.10 2.54
4:53 am 04:53 Cloudy with Rain 49 9.4 48 8.9 97 97 VRB 5 7 29.60 1003 3 5 0.13 3.30
5:15 am 05:15 Cloudy with Light Rain 50 10 48 8.9 93 93 VRB 5 7 29.60 1002 3 5 0.03 0.76
5:27 am 05:27 Cloudy with Light Rain 50 10 49 9.4 96 96 SE 5 7 29.59 1002 8 13 0.03 0.76
5:49 am 05:49 Cloudy 50 10 48 9 93 93 ESE 5 7 29.58 1002 10 16 0.03 0.76
5:53 am 05:53 Cloudy 50 10 49 9.4 96 96 SE 3 6 29.57 1001 10 16 0.03 0.76
6:31 am 06:31 Cloudy with Light Rain 51 10.6 49 9.4 92 92 Calm 29.54 1000 7 11 0.03 0.76
6:53 am 06:53 Cloudy 51 10.6 49 9.4 92 92 Calm 29.52 1000 10 16 0.03 0.76
7:53 am 07:53 Cloudy 51 10.6 49 9.4 92 92 VRB 5 7 29.48 998 10 16 0.01 0.13
8:53 am 08:53 Cloudy with Light Rain 52 11.1 50 10 93 93 VRB 3 6 29.44 997 9 14 0.01 0.13
9:17 am 09:17 Cloudy with Light Rain 53 11.7 50 10 89 89 Calm 29.43 996 10 16 0.01 0.25
9:31 am 09:31 Cloudy with Rain 53 11.7 51 10.6 93 93 VRB 5 7 29.43 997 3 4 0.03 0.76
9:53 am 09:53 Cloudy with Rain 55 12.8 52 11.1 89 89 SW 9 15 29.44 997 3 5 0.08 2.03
10:01 am 10:01 Cloudy with Light Rain 55 12.8 52 11.1 89 89 SSW 8 13 29.44 997 6 10 0.01 0.25
10:22 am 10:22 Mostly Cloudy 56 13.3 53 11.7 90 90 WSW 8 13 29.45 997 10 16 0.01 0.25
10:41 am 10:41 Partly Cloudy 57 13.9 53 11.7 87 87 WSW 8 13 29.45 997 10 16 0.01 0.25
10:53 am 10:53 Mostly Cloudy 57 13.9 52 11.1 83 83 VRB 5 7 29.45 997 10 16 0.01 0.25
11:36 am 11:36 Cloudy with Rain 52 11.1 47 8.3 83 83 SW 13 20 29.46 998 3 5 0.05 1.27
11:53 am 11:53 Cloudy 54 12.2 49 9.4 83 83 SW 13 20 29.44 997 10 16 0.06 1.52
12:53 pm 12:53 Cloudy 53 11.7 46 7.8 77 77 WSW 16 26 29.45 997 10 16 0.00 0.00
1:01 pm 13:01 Cloudy 53 11.7 46 7.8 77 77 SW 12 19 29.44 997 10 16 0.00 0.00
1:31 pm 13:31 Cloudy 54 12.2 46 7.8 74 74 SW 12 19 29.45 997 10 16 0.01 0.13
1:53 pm 13:53 Cloudy 54 12.2 46 7.8 74 74 WSW 12 19 29.46 998 10 16 0.01 0.13
2:01 pm 14:01 Cloudy 54 12.2 46 7.8 74 74 SW 13 20 29.46 998 10 16 0.00 0.00
2:53 pm 14:53 Cloudy 54 12.2 45 7.2 71 71 SW 12 19 29.47 998 10 16 0.00 0.00
3:04 pm 15:04 Cloudy 54 12.2 45 7.2 71 71 SW 8 13 29.48 998 10 16 0.00 0.00
3:18 pm 15:18 Cloudy 53 11.7 45 7.2 74 74 SW 14 22 29.49 999 10 16 0.00 0.00
3:53 pm 15:53 Cloudy 52 11.1 46 7.8 80 80 SW 8 13 29.51 999 10 16 0.00 0.00
4:53 pm 16:53 Cloudy 52 11.1 47 8.3 83 83 SW 10 17 29.54 1001 10 16 0.00 0.00
5:32 pm 17:32 Cloudy with Light Rain 50 10 48 8.9 93 93 SW 10 17 29.57 1001 4 6 0.01 0.13
5:53 pm 17:53 Cloudy with Light Rain 50 10 48 8.9 93 93 SW 12 19 29.57 1002 5 8 0.01 0.25
6:34 pm 18:34 Cloudy 49 9.4 45 7.2 86 86 W 14 22 29.62 1003 10 16 0.01 0.25
6:53 pm 18:53 Cloudy with Light Rain 49 9.4 45 7.2 86 86 W 9 15 29.62 1003 10 16 0.01 0.25
7:07 pm 19:07 Cloudy 48 8.9 44 6.7 86 86 W 14 22 29.65 1004 10 16 0.01 0.13
7:19 pm 19:19 Cloudy with Light Rain 47 8.3 43 6.1 86 86 WNW 17 28 29.66 1004 7 11 0.01 0.13
7:53 pm 19:53 Cloudy 45 7.2 42 5.6 90 90 W 13 20 29.67 1005 10 16 0.01 0.13
8:40 pm 20:40 Cloudy 45 7.2 41 5 86 86 W 10 17 29.73 1007 10 16 0.00 0.00
8:53 pm 20:53 Cloudy 44 6.7 41 5 89 89 W 9 15 29.73 1007 10 16 0.00 0.00
9:08 pm 21:08 Cloudy 44 6.7 41 5 89 89 W 8 13 29.76 1008 8 13 0.00 0.00
9:53 pm 21:53 Cloudy with Mist and Fog 44 6.7 42 5.6 93 93 W 9 15 29.76 1008 5 8 0.00 0.00
10:45 pm 22:45 Cloudy 44 6.7 41 5 89 89 WNW 9 15 29.80 1009 9 14 0.00 0.00
10:53 pm 22:53 Cloudy 44 6.7 41 5 89 89 WNW 8 13 29.78 1008 9 14 0.00 0.00
11:53 pm 23:53 Cloudy 44 6.7 39 3.9 82 82 WNW 7 11 29.80 1009 10 16 0.00 0.00

Powered by AerisWeather